{"data":{"norad_id":59009,"intl_designator":"2024-036M","name":"STARLINK-31488","alt_names":[],"object_type":"PAYLOAD","status":"ACTIVE","operator":null,"country":"US","launch_date":"2024-02-23","launch_site_code":"AFWTR","launch_vehicle":null,"mission":null,"orbit_class":"UNKNOWN","rcs_meters":null,"size_class":null,"mass_kg":null,"dimensions":null,"purposes":["comms"],"wikipedia_slug":null,"has_3d_model":false,"image_url":null,"decayed_at":null,"tle_current":{"epoch":"2026-05-25T02:08:56.465088Z","epoch_age_seconds":63821,"freshness":"FRESH","line1":"1 59009U 24036M   26145.08954242 -.00001295  00000+0 -31618-4 0  9991","line2":"2 59009  53.1605  83.0274 0001407  77.5631 282.5527 15.30182615127025","mean_motion":15.30182615,"eccentricity":0.0001407,"inclination_deg":53.1605,"raan_deg":83.0274,"arg_perigee_deg":77.5631,"mean_anomaly_deg":282.5527,"bstar":-3.1618e-5,"rev_number":12702,"period_min":94.106414873887,"perigee_km":474.30270444736,"apogee_km":476.23125232688,"semimajor_km":6853.4039783871,"source":"CELESTRAK","updated_at":"2026-05-25T13:38:18.799607Z"}}}